sat.trackr.live / text

‹ back to catalog

PERSEUS-M2

NORAD 40037 · 2014-033AD

PAYLOAD ACTIVE UNKNOWN

§ Identity

Operator
Country
CIS
Launch date
2014-06-19
Launch site
DLS
Launch vehicle
Mass (kg)
RCS (m²)
0.15

Purposes: tech_demo

External: N2YO · Heavens-Above · Gunter

§ Orbital elements

Epoch: 2026-09-20T03:09:34.400160Z

Period
96.27 min
Inclination
98.0058°
Eccentricity
0.0011868
Mean motion
14.95744513 rev/d
Perigee alt
571.8 km
Apogee alt
588.3 km
Semi-major
6,958.2 km
B*
8.3077e-5
RAAN
215.6641°
Arg perigee
351.3602°
Mean anomaly
8.7412°
Rev number
66,497

§ Raw data

PERSEUS-M21 40037U 14033AD  26263.13164815  .00000865  00000+0  83077-4 0  99902 40037  98.0058 215.6641 0011868 351.3602   8.7412 14.95744513664972

JSON: /api/v1/satellites/40037 · /tle

For live sub-satellite position, see the globe view (requires WebGL).

§ Visibility from observer

Set your observer location to see the next 7 days of passes ≥ 10°. The values pass through the URL so the page stays shareable.

No JS? Fill the form by hand. The geolocation button needs JavaScript.